Wind_Speed
78 84 98 108 123 121 111 106 100 100 89 87 93 86 82 81 77 70 74 68 62 62 62 59 56 53 49 46 44 32 25 30 28 27 27 29 26 28 30 30 32 32 30 29 22
77 81 88 107 125 125 114 102 110 100 87 88 87 93 85 83 80 71 67 60 65 65 63 60 57 49 54 50 47 45 36 30 29 27 30 30 28 29 26 26 30 34 33 32 19
78 80 88 112 124 128 116 101 112 101 98 92 81 97 91 84 75 86 74 70 68 60 64 61 57 56 50 48 43 43 44 43 34 34 31 32 29 27 27 26 31 35 35 34 27
77 80 88 103 113 128 122 104 104 110 108 90 94 80 85 71 73 86 68 74 69 66 67 66 66 59 52 45 45 45 44 38 40 35 30 30 30 27 28 30 34 37 36 35 32
72 78 86 99 112 128 123 110 106 113 100 107 89 92 90 89 81 74 77 79 67 69 70 69 67 58 53 53 49 50 49 45 43 42 37 35 32 31 29 34 36 35 38 36 29
76 79 87 98 110 124 124 116 110 101 107 104 104 93 95 88 84 73 79 79 71 66 69 63 64 59 62 53 50 54 46 44 40 44 42 43 41 40 37 36 34 38 35 37 43
77 82 88 92 103 118 123 120 110 115 92 109 107 100 99 100 94 80 81 79 78 72 67 71 66 64 69 63 52 59 49 45 46 42 46 43 41 34 41 38 40 39 40 39 37
80 79 87 85 101 104 124 123 112 116 110 98 102 98 93 96 100 89 76 86 87 80 70 71 66 67 56 61 59 55 50 48 47 44 38 40 41 38 39 36 36 39 39 41 40
81 88 86 86 98 99 118 111 121 111 116 106 108 102 97 91 96 91 80 76 81 86 76 68 74 62 66 62 66 68 55 52 53 51 54 45 46 42 36 38 39 40 42 47 43
81 84 86 88 92 96 108 110 120 111 125 105 115 108 98 97 97 91 95 92 80 80 81 80 77 70 70 62 57 59 63 60 55 44 49 40 43 40 36 41 44 45 45 41 42
79 85 86 88 90 93 97 103 107 111 117 105 108 112 112 100 101 99 90 84 84 75 82 82 79 69 79 71 67 56 54 57 65 57 53 51 49 46 44 46 43 47 50 47 49
79 81 85 81 91 97 89 89 99 95 112 123 107 111 108 111 104 103 98 96 84 81 85 84 83 79 77 73 69 65 59 67 60 58 58 57 59 53 55 59 56 52 51 52 54
85 85 84 93 92 95 88 92 94 92 102 114 126 110 117 110 112 109 106 102 100 90 90 84 84 85 82 77 75 72 66 68 66 63 60 61 63 65 64 63 63 53 57 57 57
85 85 87 88 92 94 93 88 100 92 94 99 107 113 112 122 119 114 107 104 102 96 99 95 89 88 86 86 76 75 73 69 71 69 63 64 59 59 65 63 58 57 61 59 61
77 89 83 82 91 89 99 90 94 107 104 92 89 94 107 114 110 110 111 107 105 101 93 94 98 94 89 86 87 80 77 74 71 68 67 66 69 71 68 66 63 70 66 67 65
81 87 83 86 90 92 100 97 94 98 106 103 91 87 92 102 114 113 114 112 113 109 105 100 97 97 95 94 89 87 86 85 81 80 78 76 78 71 74 74 75 74 74 69 76
85 84 86 90 94 99 97 102 98 99 95 99 95 91 90 89 97 112 112 111 113 111 104 104 100 98 98 102 98 93 93 94 92 87 82 78 77 75 79 85 90 85 78 75 77
84 82 84 90 94 99 99 104 105 97 98 98 100 97 92 93 95 98 104 108 103 107 112 108 104 104 104 103 101 103 105 101 97 95 94 89 86 86 87 85 87 89 86 84 79
84 87 86 90 93 99 105 114 113 106 102 103 103 103 98 94 92 97 97 99 100 99 100 106 108 103 102 105 107 103 101 102 101 101 97 93 92 94 94 91 86 86 85 85 87
88 89 91 89 91 97 105 111 109 110 104 103 105 104 102 101 96 94 94 97 99 99 100 101 102 105 110 111 111 108 108 108 107 105 102 97 96 94 91 90 86 83 84 87 89
93 91 89 89 93 99 103 104 108 106 106 110 106 106 103 101 101 97 96 96 98 98 99 98 97 98 103 104 104 107 108 109 107 103 98 94 90 89 88 86 85 86 86 87 88
97 96 93 97 94 98 102 103 105 108 108 109 109 109 107 105 104 104 101 98 96 100 100 100 100 100 97 100 101 101 100 101 101 96 95 91 88 87 89 89 88 88 89 90 89
101 99 97 99 103 100 98 103 106 105 107 107 107 105 110 108 107 107 105 104 99 100 102 102 103 104 101 99 98 96 96 98 97 97 93 94 86 91 90 91 92 94 95 96 95
101 100 102 101 100 102 101 103 103 102 104 105 106 107 107 112 113 110 110 107 106 104 105 108 107 106 102 99 99 99 99 100 102 103 96 96 94 94 97 98 99 98 99 100 99
108 105 104 101 101 102 103 102 101 102 100 101 102 107 112 112 114 111 112 109 109 111 111 110 108 107 106 105 105 103 103 104 105 101 103 93 98 98 100 103 103 103 102 104 104
115 111 109 105 105 105 103 98 99 99 98 98 98 100 107 114 119 117 115 113 113 111 114 115 111 110 112 111 109 108 108 109 108 106 106 104 103 106 109 109 111 110 108 108 106
112 118 118 112 112 110 104 101 101 101 100 99 100 100 99 100 107 113 122 120 116 115 113 112 112 115 117 117 116 116 110 114 113 112 112 110 107 110 112 112 113 111 112 112 112
Wind_Direction
210 204 208 208 201 196 198 202 201 202 205 207 209 208 209 208 206 206 215 215 215 217 217 225 228 230 230 242 241 237 240 239 246 257 264 269 279 290 296 306 310 318 319 337 346
210 206 206 205 203 201 198 199 198 201 207 202 207 211 208 206 205 207 215 220 220 218 223 226 228 232 237 235 237 244 247 245 243 251 259 272 281 288 294 301 306 314 316 328 337
204 207 207 206 203 202 196 199 201 202 209 207 205 211 211 211 211 211 216 221 222 225 228 228 228 225 234 238 244 242 250 251 258 257 261 272 282 270 286 295 307 311 312 328 324
204 208 207 206 204 203 198 199 202 204 209 208 206 206 214 201 213 214 217 217 228 225 230 230 227 229 233 239 241 249 240 249 258 264 260 263 266 273 279 289 303 305 311 320 324
206 206 207 204 204 203 200 199 197 202 208 207 205 208 211 209 212 217 219 219 223 223 228 229 231 231 232 240 241 246 244 250 256 264 259 259 263 271 277 283 293 295 308 312 326
207 206 204 204 206 206 202 203 200 199 210 209 212 209 209 209 206 214 216 213 221 225 224 222 226 235 236 236 235 246 248 254 257 259 256 266 268 268 273 286 294 290 303 306 312
203 204 203 202 204 206 204 205 202 203 205 210 211 212 214 217 214 215 219 220 218 225 224 226 231 234 234 240 244 241 251 250 250 254 268 262 259 262 276 280 282 287 296 299 306
202 202 203 201 201 203 204 207 202 205 207 204 208 212 214 215 214 214 222 223 223 227 233 230 235 235 244 232 241 245 247 247 246 253 248 263 266 275 273 277 278 283 287 294 297
203 201 201 201 201 203 206 205 204 203 207 211 209 211 213 210 213 218 220 228 225 227 231 234 231 235 234 247 244 244 243 248 246 255 253 263 268 264 270 281 276 273 278 286 290
203 205 201 198 196 200 202 206 207 205 208 211 210 214 215 216 213 220 222 221 229 234 228 231 234 231 238 236 245 242 240 245 252 254 248 252 256 257 265 277 282 278 279 278 291
202 206 201 199 199 195 201 206 207 207 208 207 214 216 217 217 218 219 219 219 220 228 228 229 231 236 235 235 237 243 246 251 252 249 245 256 257 260 267 274 279 279 276 280 287
201 199 199 199 196 196 196 202 207 209 209 214 210 212 211 218 217 222 224 222 226 226 227 229 232 235 236 239 241 243 246 244 247 246 249 254 257 261 268 273 275 281 278 283 285
197 200 202 199 196 195 195 199 203 208 212 211 215 214 214 214 217 218 221 224 225 227 228 230 232 237 237 239 244 245 243 245 244 251 254 256 260 260 266 264 275 274 277 282 284
203 201 204 203 195 194 192 196 205 206 212 215 217 217 219 220 221 221 221 224 225 229 231 233 234 237 240 240 245 246 243 246 249 251 252 256 261 261 266 267 271 274 278 279 280
204 204 206 203 200 198 195 197 203 206 209 211 217 217 221 225 223 227 224 228 229 228 230 233 235 238 242 243 244 245 247 248 249 251 255 253 258 267 263 269 267 278 281 280 280
206 206 204 203 202 201 200 202 203 209 210 209 211 216 219 223 223 224 226 228 229 233 236 236 237 238 241 245 248 249 249 249 251 253 256 256 261 261 265 270 275 277 279 280 281
209 206 206 204 202 203 206 202 206 206 208 211 211 215 219 220 224 226 226 228 231 232 234 235 237 241 244 245 248 249 250 252 253 255 257 257 260 259 265 273 279 280 280 281 281
206 207 209 206 205 207 206 206 207 203 205 210 211 213 216 219 221 224 227 229 230 233 233 235 237 242 243 245 248 248 251 253 254 256 261 260 262 266 268 273 277 278 279 279 277
207 206 210 211 208 208 211 210 207 204 207 208 210 212 213 218 221 224 224 225 229 230 233 236 236 237 240 244 246 249 252 254 255 257 259 262 263 266 271 271 270 272 274 275 277
210 210 211 211 211 212 215 213 212 211 211 210 210 214 215 216 218 223 227 227 226 229 233 235 238 241 242 242 245 249 252 254 258 259 260 261 264 264 266 267 268 265 267 270 273
210 215 214 213 215 216 219 217 214 213 214 215 213 214 215 218 220 221 224 228 228 229 230 234 236 237 241 245 248 249 251 254 255 257 259 260 261 262 262 262 265 265 266 267 268
211 215 217 214 217 220 219 219 218 216 218 219 218 216 217 218 220 222 224 227 230 232 232 233 234 237 240 242 244 247 250 252 255 258 256 256 258 259 261 263 264 263 264 265 265
212 215 217 219 216 220 222 223 221 218 220 222 223 221 220 221 221 223 225 227 229 231 233 236 238 240 241 241 244 248 251 252 252 252 254 255 255 257 257 259 260 262 264 265 265
214 215 216 221 221 221 220 225 224 224 222 224 226 227 224 223 224 224 226 227 229 231 235 237 238 240 240 241 241 243 244 246 248 249 253 254 256 257 259 260 260 260 262 264 265
212 215 217 218 222 225 225 225 226 227 226 225 228 229 230 227 224 227 228 229 230 231 233 235 238 239 240 242 243 244 245 246 249 251 254 254 256 258 258 260 260 262 262 263 265
215 216 219 219 220 225 227 228 228 227 227 228 228 229 230 232 231 231 231 232 232 233 235 235 238 241 241 241 242 244 246 248 250 252 253 253 254 257 258 258 259 260 263 264 266
219 218 219 220 223 225 227 228 227 229 229 231 230 231 232 231 234 235 233 234 237 237 237 237 239 241 243 243 243 244 247 249 251 253 256 258 258 260 262 263 264 265 265 265 267
Height
10534 10550 10562 10572 10590 10606 10621 10637 10653 10668 10679 10685 10697 10706 10715 10725 10736 10749 10755 10763 10770 10778 10785 10792 10798 10804 10807 10812 10817 10819 10824 10827 10829 10832 10833 10833 10836 10835 10835 10836 10835 10835 10832 10831 10827
10520 10534 10546 10561 10577 10593 10612 10626 10643 10659 10668 10677 10687 10699 10708 10718 10731 10740 10749 10754 10763 10770 10777 10784 10792 10797 10800 10806 10810 10813 10819 10822 10825 10827 10829 10829 10831 10833 10832 10832 10832 10832 10831 10830 10827
10508 10521 10534 10551 10567 10582 10601 10618 10633 10646 10655 10669 10679 10691 10702 10712 10721 10732 10739 10748 10756 10762 10770 10777 10785 10791 10794 10799 10803 10809 10813 10817 10820 10822 10825 10826 10827 10828 10829 10828 10829 10828 10828 10827 10826
10495 10509 10522 10537 10554 10569 10590 10607 10621 10636 10645 10658 10670 10680 10692 10704 10714 10724 10732 10742 10746 10754 10762 10769 10776 10783 10788 10793 10796 10802 10807 10811 10814 10817 10819 10822 10823 10824 10825 10825 10825 10825 10823 10824 10823
10483 10496 10510 10525 10541 10558 10579 10596 10609 10627 10635 10651 10658 10674 10684 10694 10704 10713 10722 10732 10739 10746 10752 10760 10768 10774 10781 10785 10792 10796 10801 10806 10809 10811 10814 10815 10818 10819 10821 10822 10822 10821 10821 10822 10821
10471 10485 10499 10515 10530 10548 10565 10584 10600 10617 10621 10636 10650 10664 10672 10685 10694 10704 10713 10721 10730 10737 10744 10751 10760 10767 10775 10779 10787 10791 10795 10800 10805 10804 10806 10810 10812 10814 10816 10818 10817 10817 10818 10818 10817
10461 10471 10486 10502 10515 10539 10558 10571 10586 10605 10610 10624 10636 10653 10662 10675 10685 10695 10703 10712 10720 10727 10735 10743 10751 10759 10763 10772 10778 10783 10787 10792 10796 10798 10800 10803 10805 10810 10807 10813 10813 10813 10814 10814 10815
10449 10463 10477 10491 10509 10523 10544 10557 10576 10590 10599 10612 10626 10640 10653 10663 10675 10683 10692 10701 10710 10716 10725 10734 10742 10750 10758 10764 10769 10775 10780 10782 10787 10792 10795 10798 10800 10804 10801 10805 10808 10808 10809 10809 10809
10438 10450 10464 10481 10498 10514 10530 10542 10560 10575 10587 10600 10615 10629 10642 10653 10664 10673 10681 10690 10698 10709 10716 10725 10734 10741 10750 10754 10760 10767 10770 10773 10779 10785 10788 10791 10793 10798 10799 10796 10798 10802 10802 10803 10804
10429 10443 10456 10472 10488 10503 10518 10533 10549 10565 10576 10590 10602 10619 10633 10644 10651 10661 10670 10679 10688 10696 10706 10716 10725 10732 10740 10744 10746 10751 10758 10766 10773 10776 10780 10782 10784 10790 10792 10791 10790 10791 10795 10797 10799
10421 10435 10449 10465 10478 10495 10512 10526 10543 10556 10570 10579 10593 10610 10619 10629 10640 10650 10659 10667 10676 10687 10697 10706 10715 10723 10720 10725 10737 10745 10753 10757 10763 10767 10769 10774 10776 10780 10784 10782 10785 10784 10784 10789 10790
10415 10427 10438 10453 10470 10485 10503 10518 10532 10543 10552 10564 10577 10590 10599 10613 10624 10635 10646 10655 10666 10676 10684 10695 10706 10702 10710 10721 10729 10737 10742 10744 10750 10755 10763 10767 10767 10772 10774 10771 10775 10779 10780 10779 10779
10406 10418 10431 10440 10459 10478 10492 10503 10515 10527 10539 10550 10560 10572 10583 10594 10607 10618 10629 10641 10651 10661 10671 10680 10684 10691 10701 10710 10718 10724 10729 10732 10740 10747 10754 10758 10759 10760 10762 10760 10768 10771 10769 10772 10771
10398 10411 10421 10436 10450 10464 10478 10492 10502 10513 10525 10540 10553 10563 10573 10584 10595 10608 10619 10629 10640 10651 10657 10667 10678 10685 10691 10701 10706 10712 10715 10721 10729 10736 10743 10746 10751 10746 10749 10753 10757 10758 10758 10763 10764
10389 10401 10414 10428 10441 10455 10467 10477 10488 10492 10509 10523 10539 10557 10565 10575 10592 10602 10613 10619 10630 10637 10646 10657 10664 10670 10677 10682 10689 10697 10701 10708 10716 10724 10732 10734 10740 10733 10736 10743 10745 10746 10749 10751 10755
10379 10389 10402 10414 10428 10437 10448 10460 10471 10479 10503 10519 10528 10541 10553 10567 10575 10581 10593 10605 10615 10624 10633 10645 10653 10660 10669 10670 10677 10684 10691 10695 10701 10709 10719 10722 10726 10729 10723 10726 10730 10736 10739 10742 10742
10368 10380 10390 10403 10414 10428 10440 10446 10453 10473 10492 10508 10522 10532 10541 10552 10559 10568 10579 10590 10603 10614 10625 10634 10639 10648 10652 10658 10664 10671 10674 10678 10684 10691 10706 10707 10711 10718 10719 10712 10713 10721 10727 10729 10729
10358 10370 10381 10391 10403 10414 10420 10422 10432 10463 10477 10493 10504 10512 10523 10532 10541 10552 10560 10573 10585 10596 10606 10615 10624 10633 10640 10641 10645 10647 10654 10662 10669 10678 10689 10696 10700 10703 10705 10706 10703 10704 10705 10709 10713
10348 10360 10372 10382 10391 10398 10403 10404 10433 10448 10458 10473 10483 10494 10507 10518 10530 10537 10547 10561 10570 10579 10587 10594 10604 10612 10617 10621 10624 10637 10644 10646 10653 10663 10672 10680 10686 10688 10687 10691 10696 10694 10690 10688 10687
10337 10348 10359 10371 10381 10388 10387 10400 10425 10438 10447 10456 10467 10478 10493 10504 10514 10521 10529 10547 10557 10565 10570 10578 10585 10595 10598 10602 10609 10623 10627 10630 10639 10649 10655 10663 10667 10669 10671 10674 10676 10680 10679 10675 10673
10323 10334 10349 10359 10368 10369 10374 10392 10409 10424 10434 10444 10456 10467 10479 10489 10500 10508 10517 10528 10535 10544 10551 10559 10566 10575 10579 10592 10599 10602 10609 10615 10619 10627 10637 10645 10651 10649 10652 10656 10658 10659 10660 10661 10659
10307 10322 10334 10344 10349 10354 10366 10378 10394 10409 10419 10430 10442 10453 10465 10474 10484 10492 10504 10510 10521 10529 10535 10541 10547 10556 10568 10573 10576 10587 10596 10600 10605 10617 10617 10622 10632 10633 10632 10635 10638 10641 10641 10639 10637
10293 10305 10316 10323 10331 10340 10354 10361 10374 10392 10404 10416 10426 10437 10449 10457 10466 10477 10486 10498 10508 10511 10519 10526 10532 10542 10550 10561 10570 10578 10583 10583 10585 10587 10598 10600 10620 10608 10613 10616 10617 10617 10618 10618 10618
10276 10286 10299 10306 10321 10330 10340 10347 10365 10377 10389 10401 10408 10418 10431 10439 10451 10462 10470 10481 10491 10495 10500 10502 10514 10525 10542 10548 10546 10550 10557 10558 10558 10562 10584 10587 10591 10597 10591 10593 10596 10597 10597 10598 10601
10258 10271 10280 10296 10305 10313 10324 10336 10347 10362 10372 10382 10393 10405 10412 10423 10435 10444 10453 10463 10470 10477 10481 10485 10498 10508 10517 10524 10528 10536 10539 10540 10542 10556 10555 10583 10572 10574 10571 10571 10572 10572 10576 10580 10583
10242 10254 10264 10279 10288 10295 10304 10322 10334 10343 10353 10363 10378 10384 10390 10401 10414 10423 10433 10441 10448 10456 10463 10472 10480 10486 10493 10502 10507 10515 10521 10524 10528 10537 10541 10552 10553 10547 10540 10544 10547 10553 10556 10558 10559
10220 10235 10243 10256 10268 10278 10294 10304 10314 10321 10334 10344 10353 10360 10376 10387 10394 10402 10413 10419 10426 10433 10443 10450 10459 10464 10467 10475 10483 10488 10511 10508 10512 10517 10519 10524 10529 10525 10522 10520 10523 10527 10531 10534 10536